Wind_Speed
4 4 3 3 3 4 4 5 2 1 3 4 6 6 6 4 3 2 1 2 2 3 4 5 4 4 4 3 3 4 5 5 6
7 6 5 5 5 5 4 4 4 2 3 4 5 5 6 6 5 4 2 2 3 4 5 5 5 5 6 6 5 6 6 6 7
11 8 7 7 7 7 5 4 4 3 4 5 6 7 8 7 7 6 4 4 4 5 5 6 6 6 6 7 7 7 7 7 7
14 11 10 10 9 9 9 7 5 5 5 6 7 8 9 10 9 9 6 7 7 7 8 7 8 8 8 8 8 8 8 8 8
16 14 11 9 9 10 10 10 8 8 7 7 8 9 11 12 11 12 8 10 9 9 9 10 10 10 9 9 9 9 9 9 8
17 16 16 14 13 12 12 12 11 11 10 9 9 10 12 13 13 14 12 13 12 12 12 12 12 11 11 10 10 10 10 10 10
18 18 18 19 17 17 15 13 13 14 13 12 12 12 13 14 15 14 14 15 16 15 14 14 14 14 13 12 12 12 11 11 11
22 22 20 18 19 18 17 16 16 16 16 15 14 15 17 16 16 15 15 17 17 18 18 17 17 16 15 15 13 13 12 12 11
23 19 20 20 23 22 20 20 20 20 19 19 17 18 18 19 20 18 16 17 18 18 18 19 19 18 18 17 15 14 14 13 13
24 24 22 23 22 22 23 21 22 23 23 22 23 22 22 22 22 22 20 19 20 19 19 18 19 20 19 19 15 15 15 14 14
25 25 23 23 24 23 23 26 24 24 25 26 25 26 26 26 26 26 25 23 22 22 21 20 19 20 20 19 18 17 18 15 15
28 26 26 25 25 25 23 24 27 27 25 26 28 30 30 29 29 30 30 27 26 25 24 23 22 21 20 20 19 19 19 18 17
28 27 25 26 28 29 30 28 28 29 27 27 28 31 33 32 32 34 34 33 31 27 27 25 24 24 22 21 20 20 21 20 19
29 26 24 27 28 26 28 27 30 33 34 30 30 32 36 35 34 36 37 38 37 33 29 28 27 25 23 22 20 20 21 20 21
30 29 29 30 29 23 25 31 33 35 34 33 34 32 34 36 34 38 39 37 41 38 36 33 31 28 27 24 22 21 21 23 23
32 31 28 29 30 30 30 30 30 31 33 35 37 36 36 40 40 35 40 39 36 39 42 42 47 42 31 29 23 23 23 25 24
32 31 31 32 34 34 32 32 31 30 29 34 36 41 43 39 36 38 39 40 43 43 43 43 44 42 35 34 31 27 24 25 25
35 35 34 35 36 35 34 34 35 35 35 38 41 41 44 42 43 37 38 38 40 40 38 39 42 33 45 39 37 32 24 26 26
38 38 37 38 37 38 37 38 40 42 44 42 39 42 44 47 48 46 47 38 40 34 34 40 39 43 44 40 40 33 27 28 31
41 40 40 40 40 43 45 45 45 47 48 47 43 41 42 44 45 42 47 46 39 37 38 35 39 46 39 41 45 38 32 33 39
Wind_Direction
243 242 249 290 289 298 335 350 350 205 198 206 204 198 203 210 211 221 337 324 329 330 336 333 336 332 325 318 319 319 317 324 328
243 244 248 261 271 271 290 321 331 290 219 210 224 234 231 221 227 241 243 275 297 306 309 314 320 320 317 315 312 309 313 313 313
252 244 248 262 270 269 267 286 308 301 266 244 233 235 245 249 246 243 249 264 274 281 289 298 303 305 308 308 309 311 314 310 309
249 248 250 264 266 267 271 270 278 287 274 266 265 260 256 255 254 257 256 263 272 279 284 287 291 295 297 301 307 310 307 303 305
252 253 253 255 259 259 266 271 273 276 280 274 267 267 268 268 265 263 261 269 273 277 279 281 281 285 289 295 299 301 299 299 302
253 256 259 254 252 256 260 266 267 269 275 280 274 271 270 273 273 274 274 272 275 279 284 284 283 283 287 291 293 294 296 300 301
250 255 257 259 258 256 258 265 270 272 273 278 284 281 275 275 277 279 277 280 282 282 281 282 281 282 285 288 291 290 291 293 296
249 251 255 260 265 263 256 256 264 269 268 267 272 275 281 282 281 281 280 281 283 285 287 286 284 283 284 284 286 287 287 289 296
253 255 263 257 259 265 260 255 256 261 269 272 266 267 273 278 282 283 280 280 281 282 285 287 288 286 285 285 284 281 284 288 288
258 258 261 266 260 259 266 265 261 259 261 266 273 270 267 270 273 278 279 276 277 279 280 281 284 285 285 284 282 279 278 279 281
262 264 263 260 261 263 263 268 266 264 265 266 265 273 268 268 272 274 276 275 275 276 278 278 278 281 281 280 279 278 275 273 278
267 267 262 262 265 265 270 275 275 273 272 271 274 269 273 269 267 270 273 273 274 276 278 280 279 278 279 280 279 275 273 272 276
259 259 259 262 261 265 268 271 274 275 276 275 275 274 274 270 276 271 270 271 270 270 275 279 281 281 279 277 278 274 274 275 275
249 251 253 257 260 267 270 269 271 273 276 277 275 276 276 272 272 267 268 268 271 272 268 271 273 274 274 274 274 275 274 276 278
247 250 262 262 263 259 266 267 269 270 273 277 273 271 277 279 279 275 271 267 268 267 269 271 267 268 268 267 268 268 271 275 279
250 255 255 261 264 274 273 272 270 271 270 271 273 275 273 271 274 273 273 276 266 272 287 278 261 280 256 258 261 267 266 267 273
252 249 258 259 268 273 275 272 270 273 275 274 276 274 271 269 269 270 269 266 272 272 276 271 272 274 261 257 252 249 257 261 266
248 251 260 261 269 272 273 273 273 276 276 276 272 271 274 276 272 267 273 271 271 271 274 271 273 271 258 258 258 251 244 259 268
247 255 259 265 270 273 275 275 276 278 279 276 269 271 271 278 278 272 279 279 282 280 274 269 269 275 273 258 261 250 253 252 254
247 257 260 268 271 275 278 280 278 276 275 276 271 270 266 272 273 270 275 279 265 284 280 267 274 267 271 255 257 252 249 245 252
Height
3168 3168 3168 3168 3168 3168 3169 3169 3168 3167 3167 3168 3168 3168 3168 3169 3169 3169 3171 3172 3172 3172 3172 3172 3171 3171 3170 3169 3169 3168 3168 3167 3166
3167 3167 3167 3167 3167 3168 3168 3168 3168 3168 3167 3167 3168 3169 3168 3168 3169 3169 3170 3171 3171 3171 3171 3171 3171 3170 3170 3169 3169 3167 3167 3166 3165
3165 3165 3166 3166 3166 3166 3167 3167 3168 3168 3168 3168 3168 3168 3168 3169 3169 3169 3170 3170 3170 3170 3170 3170 3170 3169 3169 3168 3168 3167 3166 3166 3165
3162 3163 3164 3165 3165 3166 3166 3166 3166 3167 3167 3167 3168 3168 3168 3168 3168 3168 3169 3169 3169 3169 3169 3169 3168 3168 3168 3167 3167 3166 3165 3164 3163
3160 3161 3162 3163 3163 3164 3164 3165 3165 3165 3166 3166 3167 3167 3167 3167 3168 3167 3168 3167 3167 3168 3167 3167 3167 3166 3166 3166 3165 3165 3164 3163 3162
3157 3158 3159 3160 3161 3162 3162 3163 3163 3164 3165 3165 3165 3166 3165 3166 3166 3167 3167 3167 3166 3166 3166 3166 3166 3165 3165 3164 3164 3163 3163 3162 3161
3155 3155 3156 3157 3158 3159 3160 3161 3161 3162 3162 3163 3164 3164 3164 3163 3163 3164 3165 3165 3165 3165 3164 3164 3163 3163 3163 3163 3162 3162 3161 3160 3160
3151 3152 3153 3153 3155 3155 3156 3157 3158 3159 3160 3160 3161 3162 3162 3161 3161 3161 3162 3162 3163 3163 3163 3163 3162 3161 3161 3160 3160 3160 3159 3159 3158
3147 3147 3148 3150 3151 3152 3153 3153 3155 3155 3156 3157 3158 3159 3159 3158 3158 3159 3159 3159 3159 3159 3160 3160 3159 3159 3158 3158 3158 3157 3157 3156 3155
3142 3143 3144 3146 3146 3148 3149 3150 3150 3151 3152 3152 3153 3153 3154 3155 3155 3155 3156 3156 3155 3155 3155 3155 3155 3155 3155 3155 3155 3154 3154 3153 3152
3138 3139 3141 3142 3143 3144 3144 3145 3145 3147 3147 3148 3148 3149 3149 3149 3150 3150 3151 3152 3152 3152 3152 3151 3151 3151 3151 3151 3151 3151 3150 3150 3150
3132 3135 3136 3138 3139 3139 3139 3139 3139 3140 3141 3143 3143 3143 3144 3144 3144 3145 3145 3147 3148 3148 3148 3148 3147 3147 3147 3147 3147 3147 3147 3147 3146
3126 3129 3131 3132 3133 3135 3135 3136 3135 3134 3135 3137 3137 3137 3138 3139 3139 3139 3139 3140 3142 3143 3143 3143 3143 3143 3143 3143 3144 3143 3143 3144 3143
3121 3123 3125 3126 3127 3128 3129 3130 3129 3129 3129 3130 3130 3130 3130 3132 3131 3132 3133 3133 3134 3137 3137 3138 3137 3137 3137 3138 3139 3140 3139 3139 3139
3115 3117 3119 3119 3119 3122 3123 3123 3123 3122 3122 3122 3122 3122 3121 3122 3122 3124 3124 3126 3127 3128 3130 3131 3131 3131 3131 3131 3132 3133 3134 3134 3134
3109 3111 3113 3113 3114 3115 3116 3115 3115 3115 3116 3114 3114 3114 3113 3113 3114 3115 3117 3118 3118 3119 3120 3120 3121 3120 3121 3124 3124 3126 3126 3127 3126
3102 3104 3105 3106 3106 3107 3108 3108 3108 3108 3109 3107 3106 3103 3103 3104 3106 3106 3107 3108 3109 3109 3110 3111 3112 3113 3116 3118 3116 3115 3117 3119 3121
3095 3096 3097 3098 3098 3099 3100 3101 3100 3100 3101 3100 3098 3094 3092 3093 3095 3096 3097 3098 3099 3100 3100 3100 3103 3106 3107 3108 3110 3110 3111 3113 3114
3087 3087 3089 3090 3091 3091 3092 3093 3092 3090 3089 3090 3089 3088 3087 3084 3082 3083 3085 3087 3088 3090 3090 3091 3094 3096 3098 3099 3101 3103 3104 3104 3104
3079 3080 3081 3082 3083 3083 3082 3083 3082 3081 3079 3078 3078 3078 3078 3078 3075 3072 3074 3075 3078 3078 3082 3083 3082 3086 3088 3090 3092 3094 3094 3094 3092